sat.trackr.live / text

‹ back to catalog

DRUMS

NORAD 49401 · 2021-102G

PAYLOAD ACTIVE UNKNOWN

§ Identity

Operator
Country
JPN
Launch date
2021-11-09
Launch site
KSCUT
Launch vehicle
Mass (kg)
RCS (m²)

External: N2YO · Heavens-Above · Gunter

§ Orbital elements

Epoch: 2026-09-20T08:13:51.117600Z

Period
94.66 min
Inclination
97.3230°
Eccentricity
0.0013145
Mean motion
15.21254644 rev/d
Perigee alt
493.0 km
Apogee alt
511.1 km
Semi-major
6,880.2 km
B*
1.2744e-4
RAAN
297.8364°
Arg perigee
257.1340°
Mean anomaly
102.8428°
Rev number
26,804

§ Raw data

DRUMS1 49401U 21102G   26263.34295275  .00002784  00000+0  12744-3 0  99912 49401  97.3230 297.8364 0013145 257.1340 102.8428 15.21254644268048

JSON: /api/v1/satellites/49401 · /tle

For live sub-satellite position, see the globe view (requires WebGL).

§ Visibility from observer

Set your observer location to see the next 7 days of passes ≥ 10°. The values pass through the URL so the page stays shareable.

No JS? Fill the form by hand. The geolocation button needs JavaScript.